Back to catalog

FENGYUN 1C DEB

AliveSSO
NORAD 31547·DEBRIS·🇨🇳 China

Launched May 10, 1999 from Taiyuan Satellite Launch Center

Loading…

Next Passes (next 24 hours)

TLE

FreshSource: Space-Track

Epoch: Sep 13, 2026, 10:13 UTC

1 31547U 99025BYN 26256.42590990  .00001874  00000-0  81546-3 0  9991
2 31547  99.0702 314.0334 0053428 183.9549 176.1214 14.24557586679267

Track FENGYUN 1C DEB in real time with AllMySat

Download on the App Store